Weather History for KINK - January, 2014

Change the Weather History Date:

Wednesday, January 22, 2014

  Actual Average Record
Temperature  
Mean Temperature 46 °F -  
Max Temperature 68 °F 59 °F - (-1)
Min Temperature 24 °F 29 °F - (-1)
Degree Days  
Heating Degree Days 19    
Moisture  
Dew Point 13 °F    
Average Humidity 32    
Maximum Humidity 60    
Minimum Humidity 11    
Precipitation  
Precipitation 0.00 in - - ()
Sea Level Pressure  
Sea Level Pressure 30.00 in    
Wind  
Wind Speed 6 mph (North)    
Max Wind Speed 12 mph    
Max Gust Speed -    
Visibility 10 miles    
Events      
Averages and records for this station are not official NWS values.
T = Trace of Precipitation, MM = Missing Value Source: NWS Daily Summary

Daily Weather History Graph

Daily Weather History Graph

Search for Another Location

Airport or City:

Trip Planner

Search our weather history database for the weather conditions in past years. The results will help you decide how hot, cold, wet, or windy it might be!

Date:

Astronomy

Jan. 22, 2014 Rise Set
Actual Time 7:51 AM CST 6:18 PM CST
Civil Twilight 7:25 AM CST 6:44 PM CST
Nautical Twilight 6:55 AM CST 7:13 PM CST
Astronomical Twilight 6:26 AM CST 7:42 PM CST
Moon No Moon Rise 11:18 AM CST (1/22)
Length of Visible Light 11h 19m
Length of Day
10h 26m
Waning Gibbous, 65% of the Moon is Illuminated
Jan 22
Waning Gibbous
Jan 23
Last Quarter
Jan 30
New
Feb 6
First Quarter
Feb 14
Full

Hourly Weather History & Observations

Time (CST) Temp. Windchill Dew Point Humidity Pressure Visibility Wind Dir Wind Speed Gust Speed Precip Events Conditions
12:53 AM 39.0 °F 32.8 °F 12.9 °F 34% 30.09 in 10.0 mi SSW 9.2 mph - N/A   Clear
1:53 AM 35.1 °F - 14.0 °F 42% 30.08 in 10.0 mi Calm Calm - N/A   Clear
2:53 AM 27.0 °F 23.0 °F 12.0 °F 53% 30.07 in 10.0 mi NNE 3.5 mph - N/A   Clear
3:53 AM 26.1 °F 18.4 °F 10.9 °F 53% 30.06 in 10.0 mi North 6.9 mph - N/A   Clear
4:53 AM 25.0 °F 20.7 °F 10.9 °F 55% 30.04 in 10.0 mi North 3.5 mph - N/A   Clear
5:53 AM 24.1 °F 16.0 °F 10.9 °F 57% 30.04 in 10.0 mi North 6.9 mph - N/A   Clear
6:53 AM 24.1 °F 18.2 °F 10.9 °F 57% 30.06 in 10.0 mi North 4.6 mph - N/A   Clear
7:53 AM 24.1 °F 17.0 °F 12.0 °F 60% 30.08 in 10.0 mi North 5.8 mph - N/A   Clear
8:53 AM 30.0 °F 24.1 °F 14.0 °F 51% 30.09 in 10.0 mi NNE 5.8 mph - N/A   Clear
9:53 AM 41.0 °F - 16.0 °F 36% 30.08 in 10.0 mi Calm Calm - N/A   Clear
10:53 AM 50.0 °F - 17.1 °F 27% 30.05 in 10.0 mi Calm Calm - N/A   Clear
11:53 AM 57.0 °F - 16.0 °F 20% 30.02 in 10.0 mi Calm Calm - N/A   Clear
12:53 PM 63.0 °F - 12.9 °F 14% 29.96 in 10.0 mi WNW 3.5 mph - N/A   Clear
1:53 PM 66.0 °F - 10.9 °F 12% 29.91 in 10.0 mi North 6.9 mph - N/A   Clear
2:53 PM 66.9 °F - 12.0 °F 12% 29.89 in 10.0 mi West 5.8 mph - N/A   Clear
3:53 PM 66.9 °F - 12.0 °F 12% 29.88 in 10.0 mi WSW 8.1 mph - N/A   Clear
4:53 PM 68.0 °F - 10.9 °F 11% 29.87 in 10.0 mi Calm Calm - N/A   Clear
5:53 PM 63.0 °F - 10.0 °F 13% 29.89 in 10.0 mi WNW 4.6 mph - N/A   Clear
6:53 PM 54.0 °F - 10.9 °F 18% 29.93 in 10.0 mi North 10.4 mph - N/A   Clear
7:53 PM 52.0 °F - 14.0 °F 22% 29.96 in 10.0 mi NNE 11.5 mph - N/A   Clear
8:53 PM 48.9 °F - 15.1 °F 26% 29.96 in 10.0 mi NNE 10.4 mph - N/A   Clear
9:53 PM 48.0 °F - 16.0 °F 28% 29.98 in 10.0 mi North 10.4 mph - N/A   Clear
10:53 PM 46.9 °F - 17.1 °F 30% 29.98 in 10.0 mi NE 11.5 mph - N/A   Partly Cloudy
11:53 PM 45.0 °F 39.3 °F 19.0 °F 36% 29.99 in 10.0 mi NNE 11.5 mph - N/A   Partly Cloudy